Simultaneous Nadir Overpasses (SNOs) Predictions

Prediction of SNOs between GOES-16 and NOAA-19 Satellite Orbit:

Table of predicted SNOs for the next 14.0 days since TLE Epoch: 8/24/2018
Index Date Time (GOES-16) GOES-16 Lat,Lon NOAA-19 Lat,Lon Distance(km) Time Diff (sec)
1 08/25/2018 09:25:36 -0.03, -75.20 0.54, -77.77 292.44 80
2 08/26/2018 09:11:22 -0.04, -75.21 -0.10, -74.94 30.73 80
3 08/27/2018 08:59:47 -0.04, -75.22 -0.75, -72.12 354.04 80
4 08/29/2018 21:23:53 0.04, -75.24 -0.43, -77.20 223.93 80
5 08/30/2018 21:09:40 0.04, -75.26 0.26, -74.39 99.80 80
6 08/31/2018 20:58:05 0.04, -75.27 0.90, -71.56 423.53 80
7 09/02/2018 09:33:28 -0.04, -75.31 0.89, -79.40 466.78 80
8 09/03/2018 09:21:53 -0.04, -75.32 0.25, -76.57 142.94 80
9 09/04/2018 09:07:39 -0.05, -75.34 -0.40, -73.75 180.93 80
10 09/06/2018 21:31:45 0.05, -75.37 -0.74, -78.84 396.16 80




NCC Satellite Simultaneous Nadir Overpasses (SNOs) Prediction Service
